TOS R/B, 22797

Orbit data source: Space-Track

TOS R/B, 22797 is space debris in HEO originally from an American launch on Sun, 12 Sep 1993 UTC launched from the Air Force Eastern Test Range (AFETR). Debris objects in space refer to the collection of defunct objects orbiting the Earth. Examples of debris include non-operational satellites, rocket bodies, and fragments generated from explosions, collisions, or faulty payload assembly.

Loading next visibility...
Identifier
22797, 1993-058D
Orbit
HEO
Country
Flag of USUS
Related business
Manufacturer
MMA/CSD
Mission
Spacecraft
Bus & Motor
ORBUS 21, Unknown motor
Mass
9,366 kg wet, 1,195 kg dry
Launch date (UTC)
1993-09-12 (32 years ago)
Launch vehicle
Unknown
Launch site
Air Force Eastern Test Range (AFETR)
Object type
Payload
Rocket body
Debris
Shape & HBR
Cyl + Cone, 1.6 m
Radar Cross Section
8.215 m², Large (>1 m²)

Expand to show TLE details & history
Last TLE update: 1 day ago

TLE from 1 day ago
0 TOS R/B
1 22797U 93058D   25350.48829298  .00000990  00000-0  84445-3 0  9993
2 22797  14.7172 130.4401 7385047 324.4548   3.7032  2.13229239244499
Epoch: 2025-12-16T11:43Z
TLE epoch observation values (Epoch: 2025-12-16T11:43:08.513Z)
Latitude
-0.00005°
Longitude
-130.7243°
Altitude
840.242 km
Speed
9.736 km/s
True Right ascension
08h 41m 43s
True Declination
0° 00' 00"
Sunlit
Object was in full shadow at epoch
Visualization orbit readout
Latitude
Unknown
Longitude
Unknown
Altitude
Unknown
Speed
Unknown
Apparent Right ascension
Unknown
Apparent Declination
Unknown
Sunlit
N/A
Visualization observer readout
Local Sidereal Time
10:20:11
Azimuth
Unknown
Elevation
Unknown
Doppler factor
Unknown
Orbital elements
Apogee altitude
37,958.917 km
Perigee altitude
290.773 km
Semi-major axis
25,502.982 km
Eccentricity
0.7385
Inclination
14.7172°
RAAN
130.4401°
Arg. of periapsis
324.4548°
True anomaly
34.62736°
Mean anomaly
3.7032°
Eccentric anomaly
13.78697°
Mean motion
0.53291 °/min
Orbital period
675.53 mins
BSTAR
0.00084445
Loading maneuver chart data...
Computing Atmospheric mass density...
Loading historical data...
Loading historical data...
Loading historical data...
Loading historical data...
Loading historical data...
Loading historical data...
Loading historical data...

Documentation

Showing up to 5 results
|